Location: Unspecified
(0.0000°N, 0.0000°E)
Time: 12:23:50
(UTC+00:00)

Vanguard 1 - Pass Details

Date: 09 December 2017
Orbit: 649 x 3834 km, 34.2° (Epoch: 21 January)

Event Time Altitude Azimuth Distance (km) Brightness Sun altitude
Rises 21:42:14 0° 247° (WSW) 3,254 13.3 -50.9°
Enters shadow 21:45:08 - 224° (SW) 2,833 12.9 -51.5°
Reaches altitude 10° 21:48:05 10° 197° (SSW) 2,882 - -52.0°
Maximum altitude 21:48:19 10° 195° (SSW) 2,906 - -52.1°
Drops below altitude 10° 21:48:31 10° 194° (SSW) 2,929 - -52.1°
Exits shadow 21:53:20 - 163° (SSE) 3,920 13.3 -53.1°
Sets 21:56:50 0° 150° (SSE) 4,904 13.7 -53.7°
